Kaltag, AK

12:55 PM AKDT on March 25, 2017 (GMT -0800)
Kaltag

Weather History for PAKV - August, 2013

Change the Weather History Date:

Sunday, August 18, 2013

  Actual Average (PAGA) Record (PAGA)
Temperature  
Mean Temperature 52 °F -  
Max Temperature 66 °F 60 °F 74 °F (1950)
Min Temperature 39 °F 48 °F 21 °F (2001)
Degree Days  
Heating Degree Days 12    
Growing Degree Days 2 (Base 50)    
Moisture  
Dew Point 43 °F    
Average Humidity 81    
Maximum Humidity 100    
Minimum Humidity 43    
Precipitation  
Precipitation 0.00 in - - ()
Sea Level Pressure  
Sea Level Pressure 29.68 in    
Wind  
Wind Speed 2 mph (SW)    
Max Wind Speed 12 mph    
Max Gust Speed -    
Visibility 8 miles    
Events Fog , Rain    
Averages and records for this station are not official NWS values.
T = Trace of Precipitation, MM = Missing Value Source: NWS Daily Summary

Daily Weather History Graph

Daily Weather History Graph

Search for Another Location

Airport or City:

Trip Planner

Search our weather history database for the weather conditions in past years. The results will help you decide how hot, cold, wet, or windy it might be!

Date:

Astronomy

Aug. 18, 2013 Rise Set
Actual Time 6:35 AM AKDT 10:39 PM AKDT
Civil Twilight 5:32 AM AKDT 11:41 PM AKDT
Nautical Twilight 3:34 AM AKDT 1:32 AM AKDT
Astronomical Twilight Sun does not rise Sun does not rise
Moon 9:10 PM AKDT (8/18) 3:24 AM AKDT (8/18)
Length of Visible Light 18h 08m
Length of Day
16h 03m
Waxing Gibbous, 93% of the Moon is Illuminated
Aug 18
Waxing Gibbous
Aug 20
Full
Aug 28
Last Quarter
Sep 5
New
Sep 12
First Quarter

Hourly Weather History & Observations

Time (AKDT) Temp. Windchill Dew Point Humidity Pressure Visibility Wind Dir Wind Speed Gust Speed Precip Events Conditions
12:53 AM 51.1 °F - 48.9 °F 92% 29.70 in 10.0 mi Calm Calm - 0.00 in Rain Light Rain
1:53 AM 50.0 °F - 48.0 °F 93% 29.70 in 10.0 mi Calm Calm - 0.00 in Rain Light Rain
2:53 AM 50.0 °F - 48.0 °F 93% 29.70 in 10.0 mi Calm Calm - 0.00 in Rain Light Rain
3:53 AM 46.9 °F - 45.0 °F 93% 29.71 in 10.0 mi Calm Calm - 0.00 in Rain Light Rain
4:53 AM 44.1 °F - 42.1 °F 93% 29.71 in 8.0 mi Calm Calm - 0.00 in   Clear
5:40 AM 39.2 °F - 39.2 °F 100% 29.70 in 5.0 mi Calm Calm - N/A   Scattered Clouds
5:53 AM 42.1 °F - 39.9 °F 92% 29.71 in 4.0 mi Calm Calm - N/A   Partly Cloudy
6:25 AM 41.0 °F - 39.2 °F 93% 29.70 in 1.5 mi Calm Calm - N/A   Scattered Clouds
6:28 AM 39.2 °F - 39.2 °F 100% 29.70 in 0.8 mi Calm Calm - N/A   Mist
6:53 AM 39.9 °F 36.7 °F 39.0 °F 97% 29.71 in 0.2 mi SW 4.6 mph - 0.00 in Fog , Rain Light Rain
7:05 AM 39.2 °F 35.9 °F 39.2 °F 100% 29.70 in 2.0 mi SW 4.6 mph - 0.00 in   Overcast
7:14 AM 39.2 °F 37.0 °F 39.2 °F 100% 29.70 in 8.0 mi SW 3.5 mph - 0.00 in   Mostly Cloudy
7:23 AM 39.2 °F 37.0 °F 39.2 °F 100% 29.70 in 4.0 mi SW 3.5 mph - 0.00 in   Scattered Clouds
7:25 AM 39.2 °F 37.0 °F 39.2 °F 100% 29.70 in 2.5 mi SW 3.5 mph - 0.00 in   Mostly Cloudy
7:33 AM 41.0 °F 38.0 °F 39.2 °F 93% 29.70 in 1.2 mi SW 4.6 mph - 0.00 in   Mostly Cloudy
7:37 AM 41.0 °F 39.0 °F 39.2 °F 93% 29.71 in 2.5 mi SW 3.5 mph - 0.00 in   Scattered Clouds
7:44 AM 39.2 °F 35.9 °F 39.2 °F 100% 29.71 in 10.0 mi SW 4.6 mph - 0.00 in   Scattered Clouds
7:53 AM 41.0 °F 39.0 °F 39.9 °F 96% 29.71 in 10.0 mi SW 3.5 mph - 0.00 in   Partly Cloudy
8:53 AM 44.1 °F 42.5 °F 43.0 °F 96% 29.71 in 10.0 mi WSW 3.5 mph - N/A   Clear
9:53 AM 48.0 °F - 45.0 °F 89% 29.71 in 10.0 mi WSW 3.5 mph - 0.00 in   Clear
10:53 AM 54.0 °F - 48.0 °F 80% 29.71 in 10.0 mi Calm Calm - 0.00 in   Clear
11:53 AM 57.0 °F - 44.1 °F 62% 29.71 in 10.0 mi Calm Calm - 0.00 in   Clear
12:53 PM 60.1 °F - 46.0 °F 60% 29.70 in 10.0 mi Calm Calm - N/A   Clear
1:53 PM 62.1 °F - 45.0 °F 53% 29.69 in 10.0 mi Variable 3.5 mph - N/A   Clear
2:53 PM 63.0 °F - 45.0 °F 52% 29.68 in 10.0 mi East 4.6 mph - N/A   Clear
3:53 PM 64.9 °F - 45.0 °F 48% 29.66 in 10.0 mi Variable 3.5 mph - N/A   Clear
4:53 PM 66.9 °F - 44.1 °F 44% 29.64 in 10.0 mi Variable 3.5 mph - N/A   Clear
5:53 PM 66.0 °F - 45.0 °F 47% 29.62 in 10.0 mi South 3.5 mph - N/A   Clear
6:53 PM 66.0 °F - 43.0 °F 43% 29.62 in 10.0 mi WSW 6.9 mph - N/A   Clear
7:53 PM 62.1 °F - 48.9 °F 62% 29.62 in 10.0 mi SW 11.5 mph - N/A   Clear
8:53 PM 60.1 °F - 48.9 °F 67% 29.62 in 10.0 mi SW 8.1 mph - N/A   Clear
9:53 PM 57.9 °F - 48.9 °F 72% 29.62 in 10.0 mi WSW 8.1 mph - N/A   Clear
10:53 PM 55.9 °F - 48.0 °F 75% 29.61 in 10.0 mi SW 6.9 mph - N/A   Clear
11:53 PM 55.0 °F - 48.0 °F 77% 29.61 in 10.0 mi SW 5.8 mph - N/A   Overcast